2024-149BF (60521 NORAD) Tracking and Keplerian Element Data

This shows tracking and keplerian element data for the satellite.

Feedback or suggestion? Click here.




ElementValue
Catalog60521
Name2024-149BF
Epoch Orbit866
Epoch Day286.83996244
Epoch Year2024
RAAN1.6456
Inclination97.438
Eccentricity0.0005545
Argument of Perigee308.3021
Mean Anonmoly51.7716
Mean Motion15.21858917
Decay Rate0.00030589
L11 60521U 24149BF 24286.83996244 .00030589 00000+0 13434-2 0 9992
L22 60521 97.4380 1.6456 0005545 308.3021 51.7716 15.21858917 8669



Live tracking and technical data element details for 2024-149BF (NORAD 60521). 2024-149BF can be tracked NOW for your location showing map with azimuth and elevation plus other details from your city location.







IsCatalogInMostPopularTable: catalog: 60521, numindb: 4
Update: records affected: 1



GetName: 60521 2024-149BF

Hit Count: updated at: Tue, 03 Dec 2024 03:05:03 GMT